Simultaneous Nadir Overpasses (SNOs) Predictions

Prediction of SNOs between NPP and METOP-C Satellite Orbit:

Table of predicted SNOs for the next 14.0 days since TLE Epoch: 10/18/2022
Index Date (NPP) Time (NPP) Lat,Lon (NPP) SZA (NPP ) Date (METOP-C) Time (METOP-C) Lat,Lon (METOP-C) SZA (METOP-C ) Distance(km) Time Diff (sec)
1 10/31/2022 07:25:10 73.30, 59.48 87.41 10/31/2022 07:26:19 73.26, 61.46 87.32 63.37 69
2 10/31/2022 08:15:54 -73.30,-133.18 92.60 10/31/2022 08:17:03 -73.23,-131.30 92.70 60.89 69
3 10/31/2022 09:06:34 73.01, 34.76 87.12 10/31/2022 09:07:46 72.99, 35.53 87.08 25.20 72
4 10/31/2022 09:57:18 -73.00,-157.91 92.88 10/31/2022 09:58:30 -72.96,-157.22 92.94 23.00 72
5 10/31/2022 10:48:00 72.81, 9.80 86.94 10/31/2022 10:49:11 72.82, 9.83 86.94 1.40 71
6 10/31/2022 11:38:44 -72.81, 177.13 93.06 10/31/2022 11:39:55 -72.79, 177.08 93.08 2.46 71
7 10/31/2022 12:29:30 72.82, -15.59 86.97 10/31/2022 12:30:33 72.80, -15.55 86.94 2.27 63
8 10/31/2022 13:20:14 -72.81, 151.74 93.03 10/31/2022 13:21:16 -72.82, 151.81 93.03 2.42 62
9 10/31/2022 14:10:59 72.78, -40.87 86.94 10/31/2022 14:11:55 72.79, -40.93 86.95 2.11 56
10 10/31/2022 15:01:44 -72.82, 126.35 93.00 10/31/2022 15:02:38 -72.80, 126.43 93.03 3.20 54
11 10/31/2022 15:52:29 72.78, -66.26 86.97 10/31/2022 15:53:17 72.77, -66.31 86.95 2.46 48
12 10/31/2022 16:43:13 -72.78, 101.07 93.03 10/31/2022 16:44:00 -72.79, 101.05 93.02 1.06 47
13 10/31/2022 17:33:59 72.79, -91.65 87.00 10/31/2022 17:34:38 72.80, -91.58 87.01 2.38 39
14 10/31/2022 18:24:43 -72.78, 75.68 93.00 10/31/2022 18:25:22 -72.77, 75.67 93.02 1.98 39
15 10/31/2022 19:15:29 72.80,-117.04 87.03 10/31/2022 19:16:00 72.78,-116.96 87.01 3.13 31
16 10/31/2022 20:06:13 -72.79, 50.29 92.97 10/31/2022 20:06:43 -72.80, 50.40 92.96 3.54 30
17 10/31/2022 20:56:58 72.75,-142.32 87.01 10/31/2022 20:57:22 72.76,-142.34 87.02 1.14 24
18 10/31/2022 21:47:42 -72.75, 25.01 92.99 10/31/2022 21:48:05 -72.78, 25.02 92.96 3.66 23
19 10/31/2022 22:38:28 72.76,-167.71 87.04 10/31/2022 22:38:44 72.74,-167.72 87.02 1.97 16
20 10/31/2022 23:29:12 -72.75, -0.38 92.96 10/31/2022 23:29:27 -72.76, -0.36 92.96 1.01 15
21 11/01/2022 00:19:58 72.77, 166.90 87.07 11/01/2022 00:20:05 72.77, 167.01 87.07 3.50 7
22 11/01/2022 01:10:42 -72.76, -25.77 92.93 11/01/2022 01:10:49 -72.74, -25.74 92.95 2.17 7
23 11/01/2022 02:01:27 72.72, 141.62 87.05 11/01/2022 02:01:27 72.76, 141.63 87.08 3.69 0



Historial Predications of SNOs between NPP and METOP-C
